EW8380 Weather Reports


time (UTC)temp
C
wind
direction
speed
KPH
gust
KPH
rain 1hr
cm
rain 24hr
cm
rain mn
cm
humidity
%
barometer
mb
20260503194343 26 19 4.8 16.1 0.00 0.00 0.00 45 1010.7
20260503193843 26 47 4.8 11.3 0.00 0.00 0.00 43 1010.8
20260503193344 26 22 3.2 9.7 0.00 0.00 0.00 45 1010.8
20260503192845 25 316 3.2 9.7 0.00 0.00 0.00 48 1010.9
20260503192344 25 319 4.8 12.9 0.00 0.00 0.00 47 1010.9
20260503191841 25 27 4.8 12.9 0.00 0.00 0.00 46 1011.0
20260503191347 25 3 1.6 8.0 0.00 0.00 0.00 48 1011.1
20260503191343 25 38 3.2 12.9 0.00 0.00 0.00 49 1011.0
20260503190347 24 0 1.6 8.0 0.00 0.00 0.00 51 1011.2
20260503190342 25 304 1.6 8.0 0.00 0.00 0.00 49 1011.2
20260503185350 23 309 3.2 8.0 0.00 0.00 0.00 51 1011.3
20260503185343 24 352 3.2 6.4 0.00 0.00 0.00 53 1011.3
20260503185004 23 25 3.2 14.5 0.00 0.00 0.00 52 1011.3
20260503183849 23 56 3.2 14.5 0.00 0.00 0.00 52 1011.6
20260503183844 23 340 4.8 14.5 0.00 0.00 0.00 54 1011.4
20260503182842 23 306 3.2 14.5 0.00 0.00 0.00 54 1011.4
20260503182343 22 8 4.8 16.1 0.00 0.00 0.00 54 1011.7
20260503181840 22 318 6.4 16.1 0.00 0.00 0.00 54 1011.6
20260503181339 22 42 6.4 12.9 0.00 0.00 0.00 56 1011.7
20260503180841 22 36 3.2 12.9 0.00 0.00 0.00 54 1011.7
20260503180337 22 49 1.6 9.7 0.00 0.00 0.00 56 1011.7
20260503175838 22 340 3.2 9.7 0.00 0.00 0.00 59 1011.8
20260503175339 21 305 3.2 9.7 0.00 0.00 0.00 60 1011.8
20260503174837 21 309 3.2 11.3 0.00 0.00 0.00 60 1011.8
20260503174337 21 316 3.2 11.3 0.00 0.00 0.00 61 1011.9
20260503173834 21 332 3.2 9.7 0.00 0.00 0.00 61 1011.9
20260503173335 21 21 3.2 11.3 0.00 0.00 0.00 62 1011.9
20260503172831 20 29 3.2 11.3 0.00 0.00 0.00 61 1011.9
20260503172337 20 63 3.2 11.3 0.00 0.00 0.00 63 1012.0
20260503172331 20 41 1.6 9.7 0.00 0.00 0.00 62 1012.0
20260503171329 20 328 4.8 11.3 0.00 0.00 0.00 64 1012.1
20260503170834 20 30 4.8 14.5 0.00 0.00 0.00 61 1012.1
20260503170830 20 2 6.4 14.5 0.00 0.00 0.00 61 1012.1
20260503170450 19 13 3.2 11.3 0.00 0.00 0.00 65 1012.0
20260503150816 16 339 0.0 1.6 0.00 0.00 0.00 77 1012.5
20260503150316 16 338 0.0 3.2 0.00 0.00 0.00 77 1012.4
20260503140314 14 343 1.6 4.8 0.00 0.00 0.00 81 1012.2
20260503131313 13 329 0.0 1.6 0.00 0.00 0.00 88 1011.9
20260503130812 13 341 0.0 1.6 0.00 0.00 0.00 88 1011.9
20260503130309 13 342 0.0 1.6 0.00 0.00 0.00 88 1011.9
20260503110802 15 11 1.6 6.4 0.00 0.00 0.00 84 1012.3
20260503110305 15 346 1.6 3.2 0.00 0.00 0.00 84 1012.2
20260503110301 15 3 1.6 6.4 0.00 0.00 0.00 84 1012.2
20260503100251 15 328 0.0 0.0 0.00 0.00 0.00 83 1012.3
20260503090249 15 321 0.0 0.0 0.00 0.00 0.00 84 1012.6
20260503081249 16 323 0.0 0.0 0.00 0.03 0.00 79 1012.7
20260503080748 16 323 0.0 1.6 0.00 0.03 0.00 79 1012.6
20260503080254 16 313 0.0 1.6 0.00 0.03 0.00 80 1012.6
20260503080249 16 324 0.0 1.6 0.00 0.03 0.00 79 1012.6
20260503072748 16 343 0.0 1.6 0.00 0.03 0.00 80 1012.6
20260503072254 16 321 0.0 0.0 0.00 0.03 0.00 80 1012.7
20260503072249 16 323 0.0 0.0 0.00 0.03 0.00 80 1012.7
20260503071907 16 322 0.0 0.0 0.00 0.03 0.00 80 1012.8
20260503070749 16 321 0.0 0.0 0.00 0.03 0.00 80 1012.8
20260503070249 16 321 0.0 1.6 0.00 0.03 0.00 80 1012.7
20260503060244 16 335 0.0 1.6 0.00 0.03 0.03 80 1012.7
20260503054744 16 279 0.0 0.0 0.00 0.03 0.03 79 1012.9
20260503054244 16 279 0.0 0.0 0.00 0.03 0.03 78 1012.9
20260503053903 16 33 4.8 9.7 0.00 0.03 0.03 77 1012.5
20260503053747 16 279 0.0 4.8 0.00 0.03 0.03 77 1012.7
20260503053743 16 332 1.6 8.0 0.00 0.03 0.03 77 1012.6
20260503052742 16 358 3.2 9.7 0.00 0.03 0.03 77 1012.5
20260503051742 16 3 3.2 8.0 0.00 0.03 0.03 77 1012.4
20260503051244 16 34 4.8 9.7 0.00 0.03 0.03 77 1012.5
20260503050744 16 10 4.8 11.3 0.00 0.03 0.03 77 1012.6
20260503050242 16 21 4.8 11.3 0.00 0.03 0.03 78 1012.5
20260503045743 16 20 3.2 9.7 0.00 0.03 0.03 78 1012.6
20260503045241 16 0 3.2 8.0 0.00 0.03 0.03 78 1012.6
20260503044740 16 340 3.2 8.0 0.00 0.03 0.03 77 1012.7
20260503044240 16 1 1.6 6.4 0.00 0.03 0.03 77 1012.9
20260503043741 16 356 1.6 6.4 0.00 0.03 0.03 78 1013.0
20260503043241 16 1 1.6 6.4 0.00 0.03 0.03 78 1012.8
20260503042741 16 47 3.2 6.4 0.00 0.03 0.03 77 1013.0
20260503042239 16 359 1.6 6.4 0.00 0.03 0.03 77 1012.8
20260503041741 16 11 0.0 4.8 0.00 0.03 0.03 75 1012.9
20260503041245 17 324 0.0 1.6 0.00 0.03 0.03 74 1012.7
20260503041240 17 352 0.0 1.6 0.00 0.03 0.03 74 1012.8
20260503040244 17 276 0.0 0.0 0.00 0.03 0.03 74 1012.6
20260503040238 17 276 0.0 0.0 0.00 0.03 0.03 74 1012.6
20260503035244 17 276 0.0 0.0 0.00 0.03 0.03 74 1012.7
20260503035240 17 276 0.0 0.0 0.00 0.03 0.03 74 1012.7
20260503034239 17 276 0.0 0.0 0.00 0.03 0.03 73 1012.6
20260503033743 17 291 0.0 0.0 0.00 0.03 0.03 73 1012.6
20260503033739 17 276 0.0 0.0 0.00 0.03 0.03 72 1012.6
20260503032738 17 292 0.0 0.0 0.00 0.03 0.03 74 1012.6
20260503032239 17 291 0.0 0.0 0.00 0.03 0.03 74 1012.5
20260503031739 17 291 0.0 0.0 0.00 0.03 0.03 75 1012.6
20260503031237 16 292 0.0 0.0 0.00 0.03 0.03 75 1012.5
20260503030736 16 291 0.0 3.2 0.00 0.03 0.03 76 1012.4
20260503030236 16 292 0.0 4.8 0.00 0.03 0.03 76 1012.4
20260503025736 16 280 0.0 4.8 0.00 0.03 0.03 76 1012.5
20260503025236 16 257 1.6 6.4 0.00 0.03 0.03 76 1012.4
20260503024737 17 296 3.2 11.3 0.00 0.03 0.03 76 1012.4
20260503024236 17 250 4.8 16.1 0.00 0.03 0.03 76 1012.5
20260503023738 17 243 8.0 20.9 0.00 0.03 0.03 76 1012.6
20260503023236 17 219 9.7 20.9 0.00 0.03 0.03 75 1012.5
20260503022737 17 193 9.7 20.9 0.00 0.03 0.03 74 1012.5
20260503022234 17 237 9.7 24.1 0.00 0.03 0.03 74 1012.6
20260503021735 17 266 9.7 27.4 0.00 0.03 0.03 73 1012.5
20260503021239 18 315 12.9 35.4 0.00 0.03 0.03 70 1012.6
20260503021234 18 142 11.3 27.4 0.00 0.03 0.03 72 1012.6
20260503020236 19 172 11.3 35.4 0.00 0.03 0.03 67 1012.5
20260503015734 20 221 3.2 17.7 0.00 0.03 0.03 64 1012.2
20260503015236 20 242 1.6 4.8 0.00 0.03 0.03 64 1011.9
20260503014739 20 259 0.0 3.2 0.00 0.03 0.03 63 1011.8
20260503014734 20 217 0.0 4.8 0.00 0.03 0.03 64 1011.8
20260503013736 20 231 0.0 3.2 0.00 0.03 0.03 63 1011.7
20260503013237 20 271 0.0 1.6 0.00 0.03 0.03 62 1011.7
20260503013232 20 258 0.0 1.6 0.00 0.03 0.03 62 1011.7
20260503012232 20 276 0.0 0.0 0.00 0.03 0.03 62 1011.8
20260503011732 20 271 0.0 0.0 0.00 0.03 0.03 61 1011.8
20260503011233 20 271 0.0 0.0 0.00 0.03 0.03 62 1011.7
20260503010732 20 288 0.0 1.6 0.00 0.03 0.03 63 1011.7
20260503010237 20 297 0.0 0.0 0.00 0.03 0.03 62 1011.6
20260503010232 20 283 0.0 1.6 0.00 0.03 0.03 61 1011.6
20260503005232 20 297 0.0 1.6 0.00 0.03 0.03 61 1011.7
20260503004733 20 297 0.0 3.2 0.00 0.03 0.03 61 1011.7
20260503004231 20 288 0.0 3.2 0.00 0.03 0.03 61 1011.7
20260503003730 20 340 0.0 1.6 0.00 0.03 0.03 61 1011.8
20260503003231 20 291 1.6 6.4 0.00 0.03 0.03 61 1011.7
20260503002730 20 301 1.6 6.4 0.00 0.03 0.03 60 1011.7
20260503002231 20 312 1.6 4.8 0.00 0.03 0.03 60 1011.7
20260503001730 20 328 0.0 6.4 0.00 0.03 0.03 60 1011.7
20260503001230 20 311 0.0 6.4 0.00 0.03 0.03 60 1011.7
20260503000736 20 286 1.6 8.0 0.00 0.03 0.03 60 1011.7
20260503000731 20 307 0.0 3.2 0.00 0.03 0.03 61 1011.7
20260502235731 20 295 1.6 8.0 0.00 0.03 0.03 60 1011.9
20260502235228 20 269 1.6 6.4 0.00 0.03 0.03 61 1011.9
20260502234728 20 333 1.6 8.0 0.00 0.03 0.03 60 1011.9
20260502234229 20 255 1.6 8.0 0.00 0.03 0.03 61 1012.0
20260502233729 20 314 3.2 8.0 0.00 0.03 0.03 60 1012.0
20260502233228 20 288 3.2 9.7 0.00 0.03 0.03 61 1011.9
20260502232727 20 299 1.6 9.7 0.00 0.03 0.03 61 1012.0
20260502232228 20 302 0.0 6.4 0.00 0.03 0.03 61 1012.1
20260502231728 20 1 1.6 8.0 0.00 0.03 0.03 61 1012.2
20260502231229 20 344 1.6 8.0 0.00 0.03 0.03 62 1012.2
20260502230731 20 301 3.2 8.0 0.00 0.03 0.03 62 1012.3
20260502230726 20 13 1.6 8.0 0.00 0.03 0.03 63 1012.2
20260502230350 20 320 4.8 8.0 0.00 0.03 0.03 63 1012.4
20260502225848 19 309 3.2 8.0 0.00 0.03 0.03 63 1012.4
20260502224728 19 31 1.6 11.3 0.00 0.03 0.03 63 1012.5
20260502224231 18 344 1.6 9.7 0.00 0.03 0.03 65 1012.6
20260502224227 19 314 3.2 11.3 0.00 0.03 0.03 66 1012.5
20260502223225 19 338 1.6 9.7 0.00 0.03 0.03 65 1012.7
20260502222727 19 276 1.6 8.0 0.00 0.03 0.03 65 1012.9
20260502222226 18 82 1.6 9.7 0.00 0.03 0.03 65 1012.9
20260502221731 18 60 1.6 8.0 0.00 0.03 0.03 65 1013.2
20260502221724 18 45 1.6 9.7 0.00 0.03 0.03 65 1012.9
20260502221223 18 325 3.2 8.0 0.00 0.03 0.03 65 1013.1
20260502220724 18 352 1.6 8.0 0.00 0.03 0.03 64 1013.1
20260502215724 18 301 3.2 9.7 0.00 0.03 0.03 65 1013.3
20260502215224 18 286 1.6 9.7 0.00 0.03 0.03 65 1013.3
20260502214729 17 297 1.6 4.8 0.00 0.03 0.03 68 1013.4
20260502214723 18 318 0.0 6.4 0.00 0.03 0.03 67 1013.4
20260502214346 17 68 1.6 4.8 0.00 0.03 0.03 68 1013.5
20260502213224 17 15 1.6 9.7 0.00 0.03 0.03 67 1013.6
20260502212721 17 300 1.6 9.7 0.00 0.03 0.03 68 1013.7
20260502212222 17 317 1.6 6.4 0.00 0.03 0.03 70 1013.8
20260502211723 17 19 1.6 8.0 0.00 0.03 0.03 69 1013.7
20260502211223 17 333 1.6 8.0 0.00 0.03 0.03 68 1013.9
20260502210719 17 310 1.6 6.4 0.00 0.03 0.03 68 1013.8
20260502210221 17 304 1.6 6.4 0.00 0.03 0.03 72 1013.8
20260502205721 17 56 1.6 6.4 0.00 0.03 0.03 69 1013.9
20260502205221 16 320 0.0 4.8 0.00 0.03 0.03 71 1014.1
20260502204720 16 4 0.0 4.8 0.00 0.03 0.03 70 1014.3
20260502204220 16 50 0.0 4.8 0.00 0.03 0.03 71 1014.4
20260502203718 16 295 1.6 12.9 0.00 0.03 0.03 73 1014.5
20260502203223 15 338 1.6 6.4 0.00 0.03 0.03 75 1014.5
20260502203219 15 321 1.6 12.9 0.00 0.03 0.03 74 1014.5
20260502202222 15 292 1.6 6.4 0.00 0.03 0.03 74 1014.5
20260502202216 15 310 1.6 9.7 0.00 0.03 0.03 75 1014.6
20260502201836 15 326 0.0 9.7 0.00 0.03 0.03 74 1014.6
20260502200714 15 276 1.6 9.7 0.00 0.03 0.03 76 1014.7
20260502200214 15 330 3.2 9.7 0.00 0.03 0.03 75 1014.8
20260502195715 15 300 3.2 11.3 0.00 0.03 0.03 76 1014.7
20260502195218 15 318 3.2 11.3 0.00 0.03 0.03 75 1014.7
20260502195212 14 45 3.2 9.7 0.00 0.03 0.03 77 1014.8